Погода в Карманове

Россия / Курская область     52°08′57″N   35°21′19″E
темп.,
°C
ветер,
м/с
пор.,
м/с
влажн.,
%
обл.,
%
осадки,
мм/ч
давл.,
гПа
погр.,
м
25 февраля, чт
чт2500:00−6юз3696100 0.1 1031214
03:00−4юз3797100 0.2 1029230
06:000зюз4996100 0.0 1026450
09:00+1зюз51099100 0.0 1025346
12:00+2зюз511100100 0.1 1023275
15:00+2з614100100 0.1 1022350
18:00+2з511100100 0.0 1022275
21:00+2зсз511100100 0.1 1022267
26 февраля, пт
пт2600:00+2зсз612100100 0.1 1022242
03:00+2з512100100 0.1 1022245
06:00+2з61199100 0.0 1020258
09:00+2зюз61299100 0.0 1019332
12:00+2зюз714100100 0.0 1017424
15:00+2з713100100 0.0 1015362
18:00+2з61499100 0.1 1014359
21:00+2з61396100 0.1 1014410
27 февраля, сб
сб2700:00+1з51296100 0.0 1013475
03:00+1з51196100 0.0 1012435
06:00+1з61197100 0.1 1010543
09:00+1з61198100 0.2 1010472
12:00+1зсз6119899 0.1 1010521
15:00+1зсз61199100 0.2 1010491
18:00+1зсз5997100 0.0 1010429
21:000сз4898100 0.3 1012369
28 февраля, вс
вс2800:000ссз4898100 0.1 1012386
03:00−1ссз4895100 0.3 1014315
06:00−2ссз489586 0.1 1015359
09:00−2с599386 0.3 1017477
12:00−1с578992 0.1 1019625
15:000ссз578696 0.1 1020747
18:00−1ссз4892100 0.1 1022529
21:00−2ссз5991100 0.1 1024575
1 марта, пн
пн100:00−2ссз3792100 0.1 1026424
03:00−2ссз3692100 0.2 1027392
06:00−3ссз3694100 0.1 1028334
09:00−3с3588100 0.3 1030565
12:00−2ссз448381 0.1 1031673
15:00−1сз348172 0.1 1031633
18:00−2зсз348918 0.0 1031105
21:00−3зсз389238 0.0 1031222